Regional Weather Roundup
Issued by NWS

Home | Current Version | Previous Version | Text Only | Print | Product List | Glossary Off
Versions: 1 2 3 4 5 6 7 8 9 10 11 12 13 14 15 16 17 18 19 20 21 22 23 24 25 26 27 28 29 30 31 32 33 34 35 36 37 38 39 40 41 42 43 44 45 46 47 48 49 50

000
ASUS43 KOAX 030610
RWRNE
WEATHER ROUNDUP FOR NEBRASKA
NATIONAL WEATHER SERVICE OMAHA NE
100 AM CDT WED JUN 03 2015

NOTES: SATELLITE DATA IS BEING USED TO AUGMENT CLOUD COVER ABOVE
       12000 FEET.
       "FAIR" INDICATES FEW OR NO CLOUDS BELOW 12,000 FEET WITH NO
       SIGNIFICANT WEATHER AND/OR OBSTRUCTIONS TO VISIBILITY.

  * THESE STATIONS DO NOT REPORT WEATHER SUCH AS RAIN...SNOW OR FOG.

NEZ001>004-019>022-054>056-030700-
NEBRASKA PANHANDLE

CITY           SKY/WX    TMP DP  RH WIND       PRES   REMARKS
SCOTTSBLUFF    PTCLDY    61  51  70 VRB3      29.89S
6HR MIN TEMP:  60; 6HR MAX TEMP:  77;

ALLIANCE       MOCLDY    58  53  84 N6        29.87F
6HR MIN TEMP:  57; 6HR MAX TEMP:  75;

CHADRON        MOCLDY    60  56  86 NE13      29.94R
6HR MIN TEMP:  56; 6HR MAX TEMP:  69; 6HR PCP:  0.03;

KIMBALL          N/A    N/A N/A N/A MISG        N/A
SIDNEY         PTCLDY    63  56  78 N8        29.88R
6HR MIN TEMP:  62; 6HR MAX TEMP:  82;

$$

NEZ057>060-069>072-079>082-030700-
SOUTHWEST NEBRASKA

CITY           SKY/WX    TMP DP  RH WIND       PRES   REMARKS
NORTH PLATTE   CLOUDY    64  53  67 NE14      29.83F
6HR MIN TEMP:  64; 6HR MAX TEMP:  82;

IMPERIAL       PTCLDY    67  64  90 SE8       29.78F
6HR MIN TEMP:  67; 6HR MAX TEMP:  84;

LEXINGTON      CLOUDY    70  56  62 NE18G33   29.86R
MCCOOK         CLEAR     71  65  81 SE6       29.76F
6HR MIN TEMP:  71; 6HR MAX TEMP:  86;

OGALLALA       CLOUDY    69  56  62 E13       29.81F
$$

NEZ005>010-023>029-035>040-094-030700-
NORTH CENTRAL NEBRASKA

CITY           SKY/WX    TMP DP  RH WIND       PRES   REMARKS
VALENTINE      CLOUDY    66  53  63 CALM      29.78R
6HR MIN TEMP:  61; 6HR MAX TEMP:  81; 6HR PCP:  0.59;

AINSWORTH      CLOUDY    64  58  80 S8        29.85R
BROKEN BOW     TSTM      61  58  90 N20       29.87F FOG
6HR MIN TEMP:  60; 6HR MAX TEMP:  81; 6HR PCP:  0.43;

O`NEILL        TSTM      63  62  97 NW9       29.90R
ORD            TSTM      60  58  92 W12       29.95R FOG
6HR MIN TEMP:  61; 6HR MAX TEMP:  81; 6HR PCP:  0.23;

THEDFORD       CLOUDY    60  58  94 E6        29.87F
$$

NEZ041-046>049-061>064-073>077-083>087-030700-
SOUTH CENTRAL NEBRASKA

CITY           SKY/WX    TMP DP  RH WIND       PRES   REMARKS
GRAND ISLAND   CLOUDY    68  65  90 SE13      29.84S
6HR MIN TEMP:  68; 6HR MAX TEMP:  83;

AURORA         MOCLDY    68  66  93 SE15      29.85S
HASTINGS       MOCLDY    71  66  84 SE14G22   29.83F
6HR MIN TEMP:  71; 6HR MAX TEMP:  83;

HEBRON         PTCLDY    71  65  83 SE14      29.86S
HOLDREGE       MOCLDY    70  64  82 SE12      29.81S
KEARNEY *      CLOUDY    70  64  83 SE12      29.83S
YORK           MOCLDY    68  64  88 S13G18    29.86S
$$

NEZ011>018-030>034-042>045-030700-
NORTHEAST NEBRASKA

CITY           SKY/WX    TMP DP  RH WIND       PRES   REMARKS
NORFOLK        MOCLDY    66  61  84 S14       29.85F
6HR MIN TEMP:  66; 6HR MAX TEMP:  77;

ALBION         CLOUDY    67  62  83 SE7       29.86R
BLAIR          CLEAR     64  56  77 SE12      29.89F
COLUMBUS *     PTCLDY    66  59  77 SE9       29.87F
FREMONT        PTCLDY    66  59  79 SE12      29.88F
TEKAMAH        MOCLDY    64  58  80 SE13      29.88F
6HR MIN TEMP:  64; 6HR MAX TEMP:  76;

WAYNE          MOCLDY    65  60  86 S15       29.86F
$$

NEZ050>053-065>068-078-088>093-030700-
SOUTHEAST NEBRASKA

CITY           SKY/WX    TMP DP  RH WIND       PRES   REMARKS
LINCOLN        CLEAR     67  61  81 SE9       29.88S
6HR MIN TEMP:  67; 6HR MAX TEMP:  76;

OMAHA EPPLEY   PTCLDY    64  58  80 SE10      29.90F
6HR MIN TEMP:  64; 6HR MAX TEMP:  71;

BEATRICE       CLEAR     68  63  85 SE13      29.87F
FALLS CITY     CLEAR     66  58  75 SE8       29.91R
6HR MIN TEMP:  66; 6HR MAX TEMP:  72;

NEBRASKA CITY  CLEAR     63  58  84 S8        29.91S
PLATTSMOUTH    CLEAR     64  58  80 SE10      29.91S
$$

NEZ044-045-051>053-067-030700-
OMAHA AREA

CITY           SKY/WX    TMP DP  RH WIND       PRES   REMARKS
OMAHA EPPLEY   PTCLDY    64  58  80 SE10      29.90F
6HR MIN TEMP:  64; 6HR MAX TEMP:  71;

BLAIR          CLEAR     64  56  77 SE12      29.89F
FREMONT        PTCLDY    66  59  79 SE12      29.88F
MILLARD        CLEAR     65  59  80 SE9       29.90F
OFFUTT AFB     CLEAR     63  58  84 E6        29.90S
PLATTSMOUTH    CLEAR     64  58  80 SE10      29.91S
WAHOO          FAIR      64  60  88 SE10      29.88F
$$


USA.gov is the U.S. government's official web portal to all federal, state and local government web resources and services.